Merrill, WI

1:04 PM CDT on September 21, 2017 (GMT -0500)
Merrill Municipal

Weather History for KRRL - August, 2014

Change the Weather History Date:

Monday, August 11, 2014

  Actual Average Record
Temperature  
Mean Temperature 61 °F -  
Max Temperature 65 °F 76 °F 94 °F (1944)
Min Temperature 57 °F 50 °F 33 °F (1982)
Degree Days  
Heating Degree Days 4    
Growing Degree Days 11 (Base 50)    
Moisture  
Dew Point 60 °F    
Average Humidity 98    
Maximum Humidity 100    
Minimum Humidity 89    
Precipitation  
Precipitation 1.41 in - - ()
Sea Level Pressure  
Sea Level Pressure 29.96 in    
Wind  
Wind Speed 3 mph (North)    
Max Wind Speed 16 mph    
Max Gust Speed 25 mph    
Visibility 7 miles    
Events Rain    
Averages and records for this station are not official NWS values.
T = Trace of Precipitation, MM = Missing Value Source: NWS Daily Summary

Daily Weather History Graph

Daily Weather History Graph

Search for Another Location

Airport or City:

Trip Planner

Search our weather history database for the weather conditions in past years. The results will help you decide how hot, cold, wet, or windy it might be!

Date:

Astronomy

Aug. 11, 2014 Rise Set
Actual Time 5:55 AM CDT 8:11 PM CDT
Civil Twilight 5:22 AM CDT 8:44 PM CDT
Nautical Twilight 4:42 AM CDT 9:24 PM CDT
Astronomical Twilight 3:56 AM CDT 10:09 PM CDT
Moon 8:32 PM CDT (8/11) 7:05 AM CDT (8/11)
Length of Visible Light 15h 21m
Length of Day
14h 16m
Full, 99% of the Moon is Illuminated
Aug 11
Full
Aug 17
Last Quarter
Aug 25
New
Sep 2
First Quarter
Sep 8
Full

Hourly Weather History & Observations

Time (CDT) Temp. Dew Point Humidity Pressure Visibility Wind Dir Wind Speed Gust Speed Precip Events Conditions
12:15 AM 60.8 °F 59.7 °F 96% 30.02 in 10.0 mi Calm Calm - N/A   Clear
12:35 AM 60.1 °F 59.2 °F 97% 30.02 in 10.0 mi Calm Calm - N/A   Clear
12:55 AM 57.6 °F 57.2 °F 99% 30.01 in 10.0 mi NE 3.5 mph - N/A   Scattered Clouds
1:15 AM 58.8 °F 58.5 °F 99% 30.01 in 10.0 mi Calm Calm - N/A   Overcast
1:35 AM 58.1 °F 57.9 °F 99% 30.00 in 10.0 mi Calm Calm - N/A   Scattered Clouds
1:55 AM 58.5 °F 57.9 °F 98% 30.00 in 7.0 mi Calm Calm - N/A   Mostly Cloudy
2:15 AM 58.6 °F 57.9 °F 97% 29.99 in 10.0 mi Calm Calm - N/A   Scattered Clouds
2:35 AM 57.2 °F 57.0 °F 99% 29.98 in 10.0 mi Calm Calm - N/A   Scattered Clouds
3:15 AM 57.2 °F 57.2 °F 100% 29.98 in 7.0 mi Calm Calm - N/A   Mostly Cloudy
3:35 AM 57.4 °F 57.4 °F 100% 29.97 in 7.0 mi Calm Calm - N/A   Mostly Cloudy
3:55 AM 57.6 °F 57.6 °F 100% 29.97 in 7.0 mi Calm Calm - N/A   Mostly Cloudy
4:15 AM 58.1 °F 58.1 °F 100% 29.97 in 7.0 mi Calm Calm - N/A   Mostly Cloudy
4:35 AM 58.1 °F 57.7 °F 99% 29.96 in 7.0 mi Calm Calm - N/A   Overcast
4:55 AM 58.1 °F 58.1 °F 100% 29.96 in 7.0 mi Calm Calm - N/A   Overcast
5:15 AM 58.1 °F 57.9 °F 99% 29.96 in 7.0 mi Calm Calm - N/A   Scattered Clouds
5:35 AM 57.9 °F 57.7 °F 99% 29.95 in 7.0 mi Calm Calm - N/A   Mostly Cloudy
5:55 AM 57.2 °F 57.2 °F 100% 29.95 in 7.0 mi Calm Calm - N/A   Mostly Cloudy
6:15 AM 58.1 °F 58.1 °F 100% 29.95 in 7.0 mi Calm Calm - N/A   Overcast
6:35 AM 58.8 °F 58.8 °F 100% 29.95 in 5.0 mi Calm Calm - N/A   Overcast
6:55 AM 59.5 °F 59.5 °F 100% 29.94 in 5.0 mi NE 4.6 mph - N/A   Overcast
7:15 AM 60.1 °F 59.7 °F 99% 29.94 in 5.0 mi Calm Calm - N/A   Overcast
7:35 AM 61.7 °F 60.1 °F 94% 29.94 in 7.0 mi Calm Calm - N/A   Overcast
7:55 AM 61.7 °F 61.0 °F 97% 29.94 in 5.0 mi Calm Calm - N/A   Overcast
8:15 AM 62.6 °F 61.5 °F 96% 29.94 in 7.0 mi Calm Calm - N/A   Overcast
8:35 AM 63.3 °F 62.1 °F 96% 29.94 in 7.0 mi Calm Calm - N/A   Overcast
8:55 AM 64.6 °F 62.1 °F 92% 29.94 in 10.0 mi Calm Calm - N/A   Overcast
9:15 AM 65.3 °F 61.9 °F 89% 29.94 in 10.0 mi Calm Calm - N/A   Overcast
9:35 AM 65.3 °F 61.9 °F 89% 29.93 in 10.0 mi Calm Calm - N/A Rain Light Rain
9:55 AM 63.7 °F 63.3 °F 99% 29.93 in 4.0 mi North 5.8 mph - N/A Rain Light Rain
10:15 AM 62.8 °F 62.6 °F 99% 29.94 in 4.0 mi North 6.9 mph - N/A Rain Light Rain
10:35 AM 62.8 °F 62.6 °F 99% 29.95 in 5.0 mi NNW 3.5 mph - N/A Rain Rain
10:55 AM 62.6 °F 62.6 °F 100% 29.95 in 2.0 mi WNW 5.8 mph - 0.10 in Rain Heavy Rain
11:15 AM 62.8 °F 62.2 °F 98% 29.95 in 2.5 mi NW 6.9 mph - 0.14 in Rain Heavy Rain
11:35 AM 62.8 °F 62.6 °F 99% 29.94 in 3.0 mi North 10.4 mph 16.1 mph 0.26 in Rain Rain
11:55 AM 62.8 °F 62.8 °F 100% 29.95 in 2.0 mi North 10.4 mph 16.1 mph 0.44 in Rain Heavy Rain
12:15 PM 62.2 °F 62.1 °F 99% 29.95 in 2.0 mi North 13.8 mph 21.9 mph 0.22 in Rain Heavy Rain
12:35 PM 61.9 °F 61.7 °F 99% 29.95 in 2.5 mi North 13.8 mph 20.7 mph 0.40 in Rain Heavy Rain
12:55 PM 59.9 °F 59.2 °F 97% 29.94 in 7.0 mi North 13.8 mph 25.3 mph 0.44 in Rain Light Rain
1:15 PM 59.5 °F 59.2 °F 99% 29.94 in 10.0 mi North 12.7 mph 18.4 mph 0.01 in Rain Light Rain
1:35 PM 59.9 °F 59.2 °F 97% 29.95 in 7.0 mi NNE 9.2 mph - 0.03 in Rain Heavy Rain
1:55 PM 60.3 °F 59.9 °F 99% 29.95 in 7.0 mi NE 5.8 mph - 0.08 in Rain Rain
2:15 PM 60.8 °F 60.8 °F 100% 29.95 in 5.0 mi North 6.9 mph - 0.04 in Rain Rain
2:35 PM 61.3 °F 61.2 °F 99% 29.95 in 4.0 mi NNE 6.9 mph - 0.10 in Rain Rain
3:35 PM 61.2 °F 60.1 °F 96% 29.95 in 7.0 mi NNE 6.9 mph - 0.06 in Rain Heavy Rain
3:55 PM 60.4 °F 60.1 °F 99% 29.95 in 4.0 mi North 8.1 mph - 0.14 in Rain Rain
4:15 PM 60.4 °F 60.3 °F 99% 29.95 in 5.0 mi NNE 4.6 mph - 0.07 in Rain Rain
4:55 PM 61.2 °F 60.8 °F 99% 29.95 in 10.0 mi North 4.6 mph - 0.11 in Rain Light Rain
5:15 PM 61.7 °F 61.3 °F 99% 29.95 in 10.0 mi NNE 6.9 mph - N/A Rain Light Rain
5:55 PM 62.1 °F 61.3 °F 97% 29.94 in 10.0 mi North 5.8 mph - N/A   Overcast
6:15 PM 62.2 °F 61.2 °F 96% 29.94 in 10.0 mi North 5.8 mph - N/A   Overcast
6:35 PM 62.6 °F 61.0 °F 94% 29.94 in 10.0 mi North 6.9 mph - N/A   Overcast
7:15 PM 61.9 °F 60.1 °F 94% 29.94 in 10.0 mi North 8.1 mph - N/A   Overcast
7:35 PM 61.0 °F 59.5 °F 95% 29.94 in 5.0 mi North 16.1 mph 23.0 mph N/A Rain Light Rain
7:55 PM 60.4 °F 59.2 °F 96% 29.94 in 10.0 mi North 9.2 mph - N/A   Overcast
8:15 PM 60.3 °F 59.2 °F 96% 29.95 in 10.0 mi North 11.5 mph 16.1 mph N/A   Overcast
8:35 PM 59.7 °F 57.6 °F 93% 29.95 in 10.0 mi North 15.0 mph 21.9 mph N/A   Overcast
8:55 PM 58.3 °F 57.4 °F 97% 29.96 in 7.0 mi NNE 11.5 mph 20.7 mph N/A   Drizzle
9:15 PM 58.1 °F 57.2 °F 97% 29.96 in 10.0 mi NNE 12.7 mph - N/A   Light Drizzle